Showing default

COSMOS 445, 5548

Orbit data source: Space-Track

COSMOS 445, 5548 is a payload satellite owned by OKB-10 (CIS) in LEO that was launched on Wed, 13 Oct 1971 UTC via a KOSMOS 11K65M launch vehicle from the Plesetsk Missile And Space Complex (PKMTR). Payload-class satellites include a variety of spacecraft equipped with specific instruments for various scientific and technological missions. These include communications satellites like Starlink; space stations such as the ISS; scientific satellites like the Hubble; Earth observation satellites from companies like Planet Labs, Umbra, and HawkEye 360; GPS; miniature CubeSats for education and research; and military/defense satellites.

Loading next visibility...
Identifier
5548, 1971-086B
Orbit
LEO
Country
Flag of CISCIS
Related business
Manufacturer
OKB-10
Mission
Spacecraft
Bus & Motor
STRELA-1 11F625, Unknown motor
Mass
60 kg wet, 60 kg dry
Launch date (UTC)
1971-10-13 (55 years ago)
Launch vehicle
KOSMOS 11K65M
Launch site
Plesetsk Missile And Space Complex (PKMTR)
Object type
Payload
Rocket body
Debris
Shape & HBR
Unknown
Radar Cross Section
Medium (>0.1 m² and <1 m²)

Expand to show TLE details & history
Last TLE update: 2 days ago

TLE from 2 days ago
0 COSMOS 445
1  5548U 71086B   26171.46721549  .00000009  00000-0  14810-3 0  9995
2  5548  74.0295 283.7361 0103515 235.4298 197.4404 12.58229065511634
Epoch: 2026-06-20T11:12Z
TLE epoch observation values (Epoch: 2026-06-20T11:12:47.418Z)
Latitude
66.57899°
Longitude
-112.03651°
Altitude
1,518.611 km
Speed
7.077 km/s
True Right ascension
21h 39m 22s
True Declination
66° 27' 55"
Sunlit
Object was in daylight at epoch
Visualization orbit readout
Latitude
Unknown
Longitude
Unknown
Altitude
Unknown
Speed
Unknown
Apparent Right ascension
Unknown
Apparent Declination
Unknown
Sunlit
N/A
Visualization observer readout
Local Sidereal Time
23:07:42
Azimuth
Unknown
Elevation
Unknown
Doppler factor
Unknown
Orbital elements
Apogee altitude
1,508.894 km
Perigee altitude
1,347.282 km
Semi-major axis
7,806.225 km
Eccentricity
0.01035
Inclination
74.0295°
RAAN
283.7361°
Arg. of periapsis
235.4298°
True anomaly
197.08922°
Mean anomaly
197.4404°
Eccentric anomaly
197.26438°
Mean motion
3.14689 °/min
Orbital period
114.4 mins
BSTAR
0.0001481
Loading maneuver chart data...
Computing Atmospheric mass density...
Loading historical data...
Loading historical data...
Loading historical data...
Loading historical data...
Loading historical data...
Loading historical data...
Loading historical data...

Documentation

Showing up to 5 results
|